Find SITRO-AIS-21

NORAD ID: 61739 Int'l Des: 2024-199 Owner: SITRO Country: RU Constellation: sitronics operational
LEOCIRCULARRETROGRADE

現在のビュー

3D地球を読み込み中...

SITRO-AIS-21について

説明を読み込み中...

次回通過

Passes for default location (London). Set your location on the main map for personalized predictions.

高度履歴

Loading altitude history...

軌道要素

1 61739U 24199E 26151.14123213 .00003567 00000-0 32999-3 0 9999
2 61739 97.3252 350.0520 0013839 117.8525 242.4101 14.95049069129209
Epoch: May 31, 2026 • Age: 6 hours

現在のステータス

高度 611.7 km
速度 7.55 km/s
衛星直下点 -61.99°S, 128.14°E
打ち上げ日 Nov 4, 2024
運用期間 1.5 years
タイプ other

技術仕様

分類 Payload
質量 3.00 kg
乾燥質量 3.00 kg
総質量 3.00 kg
長さ 0.30 m
直径 0.10 m
スパン 0.30 m
形状 Box
製造者 SPUT
バスタイプ Cubesat 3U
フェーズステータス In Orbit
所有者/国 SITRO/RU

Most Searched